DW5499 Weather Reports


time (UTC)temp
F
wind
direction
speed
knots
gust
knots
rain 1hr
in
rain 24hr
in
rain mn
in
humidity
%
barometer
mb
20260904133056 80 222 2.6 7.0 0.00 0.00 0.00 74 1013.1
20260904131552 79 156 2.6 5.2 0.00 0.00 0.00 76 1013.1
20260904130052 78 160 0.9 3.5 0.00 0.00 0.00 78 1013.0
20260904124601 77 140 0.9 2.6 0.00 0.00 0.00 80 1012.9
20260904123058 76 138 0.0 2.6 0.00 0.00 0.00 82 1012.8
20260904121552 75 138 0.0 1.7 0.00 0.00 0.00 82 1012.6
20260904120044 76 138 0.0 1.7 0.00 0.00 0.00 81 1012.3
20260904114544 76 135 0.9 2.6 0.00 0.00 0.00 79 1012.2
20260904113041 76 195 0.0 2.6 0.00 0.00 0.00 78 1012.0
20260904111542 77 126 1.7 3.5 0.00 0.00 0.00 77 1011.8
20260904110037 77 173 0.9 4.3 0.00 0.00 0.00 76 1011.7
20260904104535 77 148 1.7 4.3 0.00 0.00 0.00 76 1011.7
20260904103034 78 130 1.7 5.2 0.00 0.00 0.00 75 1011.6
20260904101532 78 189 1.7 5.2 0.00 0.00 0.00 75 1011.4
20260904100033 77 187 0.9 3.5 0.00 0.00 0.00 76 1011.4
20260904094547 78 153 2.6 4.3 0.00 0.00 0.00 76 1011.3
20260904093030 77 141 0.9 2.6 0.00 0.00 0.00 77 1011.2
20260904091527 78 151 0.9 2.6 0.00 0.00 0.00 77 1010.9
20260904090040 78 126 0.9 2.6 0.00 0.00 0.00 73 1010.8
20260904084523 79 149 0.9 2.6 0.00 0.00 0.00 72 1010.6
20260904083032 80 152 0.9 2.6 0.00 0.00 0.00 71 1010.6
20260904081528 81 164 1.7 3.5 0.00 0.00 0.00 68 1010.6
20260904080012 83 158 1.7 6.1 0.00 0.00 0.00 65 1010.5
20260904074510 84 188 1.7 4.3 0.00 0.00 0.00 64 1010.6
20260904073008 84 172 1.7 3.5 0.00 0.00 0.00 63 1010.6
20260904071508 84 166 1.7 3.5 0.00 0.00 0.00 62 1010.6
20260904070008 84 189 1.7 5.2 0.00 0.00 0.00 62 1010.6
20260904064505 84 214 2.6 6.1 0.00 0.00 0.00 62 1010.8
20260904063010 85 162 2.6 5.2 0.00 0.00 0.00 61 1010.8
20260904061507 84 220 2.6 7.0 0.00 0.00 0.00 61 1010.7
20260904060004 85 216 4.3 8.7 0.00 0.00 0.00 61 1010.7
20260904054502 85 167 3.5 6.1 0.00 0.00 0.00 60 1010.7
20260904053105 85 171 1.7 5.2 0.00 0.00 0.00 60 1010.7
20260904051559 86 180 1.7 4.3 0.00 0.00 0.00 59 1010.6
20260904050058 86 136 2.6 3.5 0.00 0.00 0.00 60 1010.4
20260904044555 86 176 1.7 4.3 0.00 0.00 0.00 60 1010.4
20260904043100 86 202 1.7 3.5 0.00 0.00 0.00 59 1010.3
20260904041553 87 112 0.0 2.6 0.00 0.00 0.00 59 1010.3
20260904040105 87 199 0.9 2.6 0.00 0.00 0.00 58 1010.2
20260904034553 88 126 0.0 1.7 0.00 0.00 0.00 59 1010.3
20260904033053 89 170 0.0 2.6 0.00 0.00 0.00 54 1010.3
20260904031557 89 162 0.0 3.5 0.00 0.00 0.00 54 1010.3
20260904030053 90 188 1.7 3.5 0.00 0.00 0.00 54 1010.2
20260904024551 90 156 0.9 2.6 0.00 0.00 0.00 54 1010.0
20260904023051 90 174 0.0 3.5 0.00 0.00 0.00 53 1009.8
20260904021551 91 118 0.9 3.5 0.00 0.00 0.00 53 1009.8
20260904020051 91 158 0.9 4.3 0.00 0.00 0.00 52 1009.6
20260904014556 91 150 0.9 4.3 0.00 0.00 0.00 51 1009.4
20260904013049 92 122 0.9 3.5 0.00 0.00 0.00 51 1009.3
20260904011549 93 134 0.9 3.5 0.00 0.00 0.00 49 1009.0
20260904010049 94 116 0.0 4.3 0.00 0.00 0.00 47 1008.9
20260904004548 95 141 0.9 4.3 0.00 0.00 0.00 46 1008.8
20260904003047 96 151 2.6 6.1 0.00 0.00 0.00 44 1008.7
20260904001551 97 105 1.7 5.2 0.00 0.00 0.00 43 1008.8
20260903234546 98 163 3.5 7.0 0.00 0.00 0.00 42 1008.7
20260903233046 98 92 3.5 9.6 0.00 0.00 0.00 42 1008.6
20260903231546 98 103 5.2 10.4 0.00 0.00 0.00 42 1008.8
20260903230049 99 180 5.2 9.6 0.00 0.00 0.00 41 1008.7
20260903224544 99 168 2.6 9.6 0.00 0.00 0.00 41 1008.8
20260903223043 99 147 1.7 9.6 0.00 0.00 0.00 41 1008.8
20260903221542 99 207 4.3 11.3 0.00 0.00 0.00 42 1008.8
20260903220042 98 166 6.1 14.8 0.00 0.00 0.00 42 1008.8
20260903214551 98 147 3.5 15.6 0.00 0.00 0.00 43 1008.9
20260903213046 98 113 6.1 14.8 0.00 0.00 0.00 43 1009.0
20260903211538 98 167 7.0 13.0 0.00 0.00 0.00 43 1009.1
20260903210043 97 162 6.1 13.0 0.00 0.00 0.00 44 1009.2
20260903204535 97 166 7.8 15.6 0.00 0.00 0.00 44 1009.3
20260903203033 98 168 4.3 12.2 0.00 0.00 0.00 43 1009.5
20260903201535 98 138 3.5 12.2 0.00 0.00 0.00 44 1009.8
20260903200029 97 141 9.6 16.5 0.00 0.00 0.00 45 1009.9
20260903194526 97 160 6.1 8.7 0.00 0.00 0.00 44 1010.2
20260903193022 96 118 3.5 13.9 0.00 0.00 0.00 46 1010.3
20260903191520 95 189 7.0 14.8 0.00 0.00 0.00 47 1010.6
20260903190020 95 124 7.8 14.8 0.00 0.00 0.00 47 1010.6
20260903184517 94 207 7.8 13.0 0.00 0.00 0.00 47 1010.6
20260903183016 94 169 7.0 13.9 0.00 0.00 0.00 48 1010.8
20260903181515 94 187 8.7 13.0 0.00 0.00 0.00 48 1010.9
20260903180019 93 208 7.8 14.8 0.00 0.00 0.00 49 1011.1
20260903174512 94 188 5.2 13.9 0.00 0.00 0.00 50 1011.3
20260903173009 92 158 3.5 12.2 0.00 0.00 0.00 52 1011.4
20260903171510 92 154 6.1 16.5 0.00 0.00 0.00 52 1011.5
20260903170007 91 163 7.0 15.6 0.00 0.00 0.00 53 1011.7
20260903164505 91 166 7.0 15.6 0.00 0.00 0.00 53 1011.8
20260903163003 90 187 5.2 15.6 0.00 0.00 0.00 54 1011.9
20260903161604 89 137 5.2 14.8 0.00 0.00 0.00 56 1011.9
20260903160058 89 185 7.0 13.0 0.00 0.00 0.00 56 1012.0
20260903154600 87 185 9.6 14.8 0.00 0.00 0.00 58 1012.0
20260903153107 86 162 7.8 17.4 0.00 0.00 0.00 59 1012.2
20260903151557 86 205 7.0 15.6 0.00 0.00 0.00 60 1012.2
20260903144551 84 168 6.1 11.3 0.00 0.00 0.00 64 1012.2
20260903143101 84 157 5.2 17.4 0.00 0.00 0.00 65 1012.2
20260903141550 83 211 7.0 13.0 0.00 0.00 0.00 65 1012.2
20260903140049 82 199 6.1 13.0 0.00 0.00 0.00 66 1012.1
20260903134550 81 208 5.2 13.9 0.00 0.00 0.00 68 1012.2